• In Portugal
  • List of Countries
  • For 7 days
  • Water Temperature
  • Satellite Maps
  • Weather Map
  • Weather Widgets
  • user-avatar
    Login

    Hourly Weather Malesowizna

    Today, 24 June, Sunday

    Time Temperature Precipitation Wind Pressure Humidity
    00:00 +8°C° 0 mm 2 mps 738 mmHg 94%
    01:00 +7°C° 0 mm 2 mps 738 mmHg 94%
    02:00 +7°C° 0 mm 2 mps 738 mmHg 95%
    03:00 +7°C° 0 mm 2 mps 738 mmHg 95%
    04:00 +7°C° 0 mm 2 mps 738 mmHg 95%
    05:00 +7°C° 0 mm 2 mps 738 mmHg 95%
    06:00 +8°C° 0 mm 3 mps 738 mmHg 90%
    07:00 +10°C° 0 mm 3 mps 738 mmHg 84%
    08:00 +12°C° 0 mm 3 mps 738 mmHg 79%
    09:00 +13°C° 0.3 mm 3 mps 738 mmHg 76%
    10:00 +14°C° 0.3 mm 3 mps 738 mmHg 72%
    11:00 +16°C° 0.3 mm 3 mps 738 mmHg 69%
    12:00 +14°C° 0.7 mm 3 mps 738 mmHg 72%
    13:00 +14°C° 0.7 mm 3 mps 738 mmHg 76%
    14:00 +14°C° 0.7 mm 4 mps 738 mmHg 79%
    15:00 +14°C° 0.6 mm 3 mps 738 mmHg 81%
    16:00 +14°C° 0.6 mm 3 mps 738 mmHg 82%
    17:00 +14°C° 0.6 mm 3 mps 738 mmHg 83%
    18:00 +13°C° 0.4 mm 3 mps 738 mmHg 85%
    19:00 +13°C° 0.4 mm 2 mps 738 mmHg 88%
    20:00 +13°C° 0.4 mm 2 mps 738 mmHg 91%
    21:00 +12°C° 0.1 mm 2 mps 739 mmHg 92%
    22:00 +10°C° 0.1 mm 2 mps 739 mmHg 94%
    23:00 +9°C° 0.1 mm 2 mps 739 mmHg 96%

    Tomorrow, 25 June, Monday

    Time Temperature Precipitation Wind Pressure Humidity
    00:00 +9°C° 0.1 mm 2 mps 739 mmHg 96%
    01:00 +9°C° 0.1 mm 2 mps 739 mmHg 97%
    02:00 +9°C° 0.1 mm 2 mps 739 mmHg 97%
    03:00 +8°C° 0.3 mm 2 mps 739 mmHg 97%
    04:00 +8°C° 0.3 mm 2 mps 739 mmHg 97%
    05:00 +8°C° 0.3 mm 2 mps 739 mmHg 97%
    06:00 +9°C° 0.6 mm 3 mps 740 mmHg 96%
    07:00 +10°C° 0.6 mm 4 mps 740 mmHg 95%
    08:00 +10°C° 0.6 mm 4 mps 740 mmHg 94%
    09:00 +10°C° 0.6 mm 5 mps 740 mmHg 92%
    10:00 +12°C° 0.6 mm 5 mps 740 mmHg 91%
    11:00 +12°C° 0.6 mm 5 mps 740 mmHg 89%
    12:00 +12°C° 0.7 mm 5 mps 740 mmHg 89%
    13:00 +13°C° 0.7 mm 5 mps 740 mmHg 88%
    14:00 +13°C° 0.7 mm 5 mps 741 mmHg 88%
    15:00 +13°C° 0.4 mm 5 mps 741 mmHg 87%
    16:00 +14°C° 0.4 mm 4 mps 741 mmHg 86%
    17:00 +14°C° 0.4 mm 4 mps 741 mmHg 85%
    18:00 +13°C° 0.3 mm 4 mps 741 mmHg 87%
    19:00 +13°C° 0.3 mm 3 mps 741 mmHg 89%
    20:00 +12°C° 0.3 mm 3 mps 741 mmHg 90%
    21:00 +12°C° 0.3 mm 3 mps 741 mmHg 91%
    22:00 +11°C° 0.3 mm 3 mps 741 mmHg 92%
    23:00 +11°C° 0.3 mm 3 mps 741 mmHg 93%

    Day after tomorrow, 26 June, Tuesday

    Time Temperature Precipitation Wind Pressure Humidity
    00:00 +11°C° 0.5 mm 3 mps 741 mmHg 94%
    01:00 +11°C° 0.5 mm 4 mps 741 mmHg 94%
    02:00 +11°C° 0.5 mm 4 mps 741 mmHg 94%
    03:00 +11°C° 0.4 mm 3 mps 741 mmHg 95%
    04:00 +11°C° 0.4 mm 3 mps 741 mmHg 95%
    05:00 +10°C° 0.4 mm 3 mps 741 mmHg 95%
    06:00 +11°C° 0.3 mm 3 mps 741 mmHg 94%
    07:00 +12°C° 0.3 mm 3 mps 741 mmHg 93%
    08:00 +12°C° 0.3 mm 3 mps 741 mmHg 92%
    09:00 +13°C° 0.7 mm 3 mps 741 mmHg 89%
    10:00 +14°C° 0.7 mm 3 mps 742 mmHg 86%
    11:00 +16°C° 0.7 mm 3 mps 742 mmHg 83%
    12:00 +17°C° 1 mm 3 mps 742 mmHg 81%
    13:00 +17°C° 1 mm 2 mps 742 mmHg 79%
    14:00 +18°C° 1 mm 2 mps 742 mmHg 77%
    15:00 +18°C° 0.9 mm 2 mps 742 mmHg 77%
    16:00 +18°C° 0.9 mm 2 mps 742 mmHg 78%
    17:00 +18°C° 0.9 mm 2 mps 742 mmHg 78%
    18:00 +17°C° 0.7 mm 2 mps 742 mmHg 82%
    19:00 +16°C° 0.7 mm 2 mps 742 mmHg 86%
    20:00 +15°C° 0.7 mm 2 mps 742 mmHg 90%
    21:00 +14°C° 0.1 mm 2 mps 742 mmHg 92%
    22:00 +13°C° 0.1 mm 2 mps 742 mmHg 94%
    23:00 +12°C° 0.1 mm 1 mps 742 mmHg 95%

    27 June, Wednesday

    Time Temperature Precipitation Wind Pressure Humidity
    00:00 +11°C° 0 mm 1 mps 742 mmHg 96%
    01:00 +11°C° 0 mm 1 mps 743 mmHg 96%
    02:00 +11°C° 0 mm 1 mps 743 mmHg 96%
    03:00 +11°C° 0 mm 1 mps 743 mmHg 96%
    04:00 +10°C° 0 mm 2 mps 743 mmHg 97%
    05:00 +10°C° 0 mm 2 mps 743 mmHg 97%
    06:00 +12°C° 0 mm 2 mps 743 mmHg 93%
    07:00 +14°C° 0 mm 2 mps 744 mmHg 90%
    08:00 +16°C° 0 mm 3 mps 744 mmHg 86%
    09:00 +17°C° 0.3 mm 3 mps 744 mmHg 81%
    10:00 +19°C° 0.3 mm 3 mps 744 mmHg 75%
    11:00 +20°C° 0.3 mm 4 mps 745 mmHg 70%
    12:00 +21°C° 0.5 mm 4 mps 745 mmHg 69%
    13:00 +21°C° 0.5 mm 4 mps 745 mmHg 69%
    14:00 +22°C° 0.5 mm 4 mps 745 mmHg 69%
    15:00 +21°C° 0.6 mm 4 mps 745 mmHg 72%
    16:00 +21°C° 0.6 mm 4 mps 745 mmHg 76%
    17:00 +21°C° 0.6 mm 4 mps 745 mmHg 79%
    18:00 +20°C° 0.1 mm 4 mps 745 mmHg 82%
    19:00 +19°C° 0.1 mm 3 mps 745 mmHg 85%
    20:00 +18°C° 0.1 mm 3 mps 745 mmHg 89%
    21:00 +18°C° 0.1 mm 3 mps 745 mmHg 91%
    22:00 +17°C° 0.1 mm 3 mps 745 mmHg 93%
    23:00 +16°C° 0.1 mm 3 mps 745 mmHg 95%

    28 June, Thursday

    Time Temperature Precipitation Wind Pressure Humidity
    00:00 +16°C° 0 mm 3 mps 745 mmHg 95%
    01:00 +14°C° 0 mm 3 mps 745 mmHg 95%
    02:00 +14°C° 0 mm 4 mps 744 mmHg 95%
    03:00 +14°C° 0 mm 4 mps 744 mmHg 95%
    04:00 +14°C° 0 mm 4 mps 744 mmHg 95%
    05:00 +15°C° 0 mm 5 mps 743 mmHg 95%
    06:00 +16°C° 0.1 mm 5 mps 743 mmHg 92%
    07:00 +17°C° 0.1 mm 6 mps 742 mmHg 89%
    08:00 +19°C° 0.1 mm 6 mps 742 mmHg 86%
    09:00 +20°C° 0.1 mm 7 mps 741 mmHg 81%
    10:00 +21°C° 0.1 mm 7 mps 741 mmHg 77%
    11:00 +23°C° 0.1 mm 8 mps 740 mmHg 72%
    12:00 +23°C° 0.2 mm 8 mps 740 mmHg 73%
    13:00 +24°C° 0.2 mm 8 mps 740 mmHg 73%
    14:00 +24°C° 0.2 mm 8 mps 739 mmHg 73%
    15:00 +23°C° 0.4 mm 7 mps 739 mmHg 77%
    16:00 +23°C° 0.4 mm 6 mps 739 mmHg 80%
    17:00 +22°C° 0.4 mm 6 mps 738 mmHg 83%
    18:00 +22°C° 0.5 mm 5 mps 738 mmHg 86%
    19:00 +21°C° 0.5 mm 5 mps 738 mmHg 89%
    20:00 +21°C° 0.5 mm 5 mps 737 mmHg 92%
    21:00 +20°C° 1.8 mm 4 mps 737 mmHg 93%
    22:00 +20°C° 1.8 mm 4 mps 737 mmHg 94%
    23:00 +20°C° 1.8 mm 4 mps 736 mmHg 96%

    29 June, Friday

    Time Temperature Precipitation Wind Pressure Humidity
    00:00 +19°C° 0.9 mm 4 mps 736 mmHg 96%
    01:00 +19°C° 0.9 mm 3 mps 736 mmHg 97%
    02:00 +19°C° 0.9 mm 3 mps 735 mmHg 97%
    03:00 +18°C° 0.2 mm 3 mps 735 mmHg 97%
    04:00 +18°C° 0.2 mm 3 mps 735 mmHg 98%
    05:00 +18°C° 0.2 mm 3 mps 735 mmHg 98%
    06:00 +19°C° 0 mm 3 mps 735 mmHg 96%
    07:00 +20°C° 0 mm 3 mps 735 mmHg 95%
    08:00 +20°C° 0 mm 3 mps 735 mmHg 93%
    09:00 +21°C° 0 mm 3 mps 735 mmHg 90%
    10:00 +21°C° 0 mm 3 mps 735 mmHg 88%
    11:00 +22°C° 0 mm 3 mps 735 mmHg 85%
    12:00 +24°C° 0 mm 2 mps 735 mmHg 79%
    13:00 +25°C° 0 mm 2 mps 735 mmHg 74%
    14:00 +26°C° 0 mm 2 mps 735 mmHg 68%
    15:00 +26°C° 0.3 mm 2 mps 734 mmHg 69%
    16:00 +26°C° 0.2 mm 2 mps 734 mmHg 69%
    17:00 +26°C° 0.2 mm 2 mps 734 mmHg 69%
    18:00 +25°C° 0.6 mm 2 mps 734 mmHg 75%
    19:00 +24°C° 0.6 mm 1 mps 734 mmHg 81%
    20:00 +23°C° 0.6 mm 1 mps 734 mmHg 86%
    21:00 +21°C° 0.1 mm 1 mps 734 mmHg 88%
    22:00 +20°C° 0.1 mm 1 mps 734 mmHg 89%
    23:00 +19°C° 0.1 mm 1 mps 734 mmHg 90%
    Show more